This is the latest recevied weather packets stored in our database for station/object WX5II-15. If no packets are shown the sender has not sent any weather packets the latest 10 day(s).
| Time | Temp. | Humidity | Pressure | Rain* | Wind** | Luminosity | Snow |
|---|---|---|---|---|---|---|---|
| 1787896514 | 27.78° C | 60% | 1006.4 hPa | 0 mm | - | - | - |
| 1787895914 | 27.78° C | 59% | 1006.4 hPa | 0 mm | - | - | - |
| 1787895313 | 27.78° C | 59% | 1006.7 hPa | 0 mm | - | - | - |
| 1787894713 | 27.22° C | 59% | 1006.7 hPa | 0 mm | - | - | - |
| 1787894112 | 27.78° C | 59% | 1006.7 hPa | 0 mm | - | - | - |
| 1787893512 | 27.78° C | 57% | 1006.7 hPa | 0 mm | - | - | - |
| 1787892911 | 27.78° C | 56% | 1006.7 hPa | 0 mm | - | - | - |
| 1787891710 | 28.33° C | 55% | 1006.7 hPa | 0 mm | - | - | - |
| 1787891110 | 28.33° C | 54% | 1006.7 hPa | 0 mm | - | - | - |
| 1787890511 | 28.89° C | - | - | 0 mm | - | - | - |
| 1787890509 | 28.89° C | 54% | 1006.7 hPa | 0 mm | - | - | - |
| 1787889908 | 28.89° C | 53% | 1007.1 hPa | 0 mm | - | - | - |
| 1787889308 | 29.44° C | 52% | 1007.1 hPa | 0 mm | - | - | - |
| 1787888707 | 29.44° C | 52% | 1007.1 hPa | 0 mm | - | - | - |
| 1787888108 | 30° C | 52% | 1007.4 hPa | 0 mm | - | - | - |
| 1787887506 | 30.56° C | 51% | 1007.4 hPa | 0 mm | - | - | - |
| 1787886906 | 31.11° C | 49% | 1007.4 hPa | 0 mm | - | - | - |
| 1787886306 | 31.11° C | 49% | 1007.1 hPa | 0 mm | - | - | - |
| 1787885705 | 31.11° C | 49% | 1006.7 hPa | 0 mm | - | - | - |
| 1787885104 | 31.11° C | 49% | 1005.7 hPa | 0 mm | - | - | - |
| 1787884503 | 31.67° C | 48% | 1006.7 hPa | 0 mm | - | - | - |
| 1787883903 | 31.67° C | 46% | 1005.4 hPa | 0 mm | - | - | - |
| 1787883302 | 31.67° C | 45% | 1004.7 hPa | 0 mm | - | - | - |
| 1787882702 | 32.22° C | 45% | 1004.7 hPa | 0 mm | - | - | - |
| 1787882101 | 32.22° C | 44% | 1004.7 hPa | 0 mm | - | - | - |
* Rain latest hour (hover to see other rain measurements)
** Current wind speed in m/s (hover to see current wind gust speed)